Flag for Germany Weather past 2 weeks in Langen, Hesse, Germany

Now
34 °F

Partly sunny.


Feels Like: 31 °F
Forecast: 35 / 50 °F
Wind: 3 mph from Southwest

Location: Frankfurt-M-Flughafen Airport

Current Time: Mar 6, 2015 at 7:52:58 AM

Latest Report: Mar 6, 2015 at 7:20 AM


Visibility: N/A

Pressure: 30.63 "Hg

Humidity: 93%

Dew point: 32 °F

Location of LangenLocation

Historic Weather in Langen — Graph

°F

Langen temperature yesterday

Maximum temperature yesterday: 46 °F (at 1:50 PM)
Minimum temperature yesterday: 34 °F (at 10:20 PM)
Average temperature yesterday: 41 °F

Past Weeks' High & Low Weather Summary

 TemperatureHumidityPressure
High52 °F (Feb 20, 1:50 PM)100% (Feb 22, 2:50 AM)30.63 "Hg (Feb 22, 2:50 AM)
Low28 °F (Feb 28, 6:50 AM)35% (Mar 2, 2:50 PM)29.45 "Hg (Feb 21, 7:20 AM)
Average40 °F78%29.98 "Hg
* Reported Feb 19 6:20 AM — Mar 6 6:50 AM, Langen, Weather by CustomWeather, © 2015

Note: Actual official high and low records may vary slightly from our data, if they occured in-between our weather recording intervals... More about our weather records

Advertising

Langen weather history for previous 24 hours

 ConditionsComfort  
Time TempWeatherWind HumidityBarometerVisibility
6:50 AM
Fri, Mar 6
34 °FPassing clouds.7 mph93%30.63 "HgN/A
6:20 AM32 °FPassing clouds.6 mph93%30.63 "HgN/A
5:50 AM32 °FPassing clouds.6 mph93%30.63 "HgN/A
5:20 AM30 °FPartly cloudy.3 mph93%30.63 "HgN/A
4:50 AM32 °FPartly cloudy.5 mph93%30.63 "HgN/A
4:20 AM30 °FPassing clouds.2 mph100%30.63 "HgN/A
3:50 AM30 °FPartly cloudy.2 mph93%30.63 "HgN/A
3:20 AM30 °FPartly cloudy.3 mph93%30.63 "HgN/A
2:50 AM32 °FPartly cloudy.1 mph93%30.63 "HgN/A
2:20 AM32 °FPassing clouds.2 mph93%30.63 "HgN/A
1:50 AM34 °FPassing clouds.1 mph87%30.63 "HgN/A
1:20 AM34 °FPartly cloudy.No wind93%30.63 "HgN/A
12:50 AM34 °FPartly cloudy.1 mph87%30.63 "HgN/A
12:20 AM34 °FClear.2 mph87%30.63 "Hg10 mi
11:50 PM
Thu, Mar 5
34 °FClear.3 mph87%30.63 "Hg10 mi
11:20 PM34 °FPassing clouds.2 mph93%30.63 "HgN/A
10:50 PM34 °FPassing clouds.2 mph87%30.63 "HgN/A
10:20 PM34 °FPassing clouds.5 mph87%30.63 "HgN/A
9:20 PM36 °FClear.6 mph81%30.63 "Hg10 mi
8:50 PM39 °FClear.5 mph70%30.63 "Hg10 mi
8:20 PM41 °FPassing clouds.6 mph70%30.63 "HgN/A
7:50 PM41 °FPassing clouds.7 mph66%30.63 "HgN/A
7:20 PM43 °FPassing clouds.8 mph66%30.63 "HgN/A
6:50 PM43 °FPassing clouds.7 mph66%30.63 "HgN/A
6:20 PM45 °FPassing clouds.8 mph61%30.60 "HgN/A
5:50 PM45 °FScattered clouds.12 mph57%30.60 "HgN/A
5:20 PM46 °FBroken clouds.10 mph53%30.60 "HgN/A
4:50 PM46 °FBroken clouds.7 mph53%30.60 "HgN/A
4:20 PM46 °FBroken clouds.8 mph50%30.60 "HgN/A
3:50 PM46 °FPartly sunny.10 mph50%30.60 "HgN/A
3:20 PM46 °FBroken clouds.12 mph53%30.60 "HgN/A
2:50 PM46 °FBroken clouds.12 mph53%30.60 "HgN/A
2:20 PM46 °FBroken clouds.12 mph53%30.60 "HgN/A
1:50 PM46 °FBroken clouds.7 mph53%30.60 "HgN/A
1:20 PM45 °FBroken clouds.7 mph53%30.60 "HgN/A
12:50 PM45 °FBroken clouds.10 mph57%30.63 "HgN/A
12:20 PM45 °FScattered clouds.10 mph57%30.63 "HgN/A
11:50 AM45 °FScattered clouds.8 mph57%30.63 "HgN/A
11:20 AM43 °FScattered clouds.12 mph61%30.63 "HgN/A
10:50 AM43 °FScattered clouds.8 mph61%30.63 "HgN/A
10:20 AM41 °FScattered clouds.7 mph66%30.63 "HgN/A
9:50 AM41 °FPartly sunny.6 mph66%30.63 "HgN/A
9:20 AM41 °FPartly sunny.8 mph70%30.63 "HgN/A
8:50 AM39 °FPartly sunny.6 mph75%30.60 "HgN/A
8:20 AM39 °FScattered clouds.7 mph70%30.60 "HgN/A
7:50 AM39 °FScattered clouds.8 mph70%30.57 "HgN/A
7:20 AM37 °FPartly sunny.6 mph75%30.57 "HgN/A
Weather by CustomWeather, © 2015

See weather overviewHow to use our weather pages